Weather Roundup
Issued by NWS Chicago, IL

Home | Current Version | Previous Version | Text Only | Print | Product List | Glossary Off
Versions: 1 2 3 4 5 6 7 8 9 10 11 12 13 14 15 16 17 18 19 20 21 22 23 24 25 26 27 28 29 30 31 32 33 34 35 36 37 38 39 40 41 42 43 44 45 46 47 48 49 50

000
NZUS59 KLOT 241708
HRRLOT

CHICAGO AREA WEATHER ROUNDUP
NATIONAL WEATHER SERVICE CHICAGO/ROMEOVILLE IL
1100 AM CST FRI FEB 24 2017

NOTE: "FAIR" INDICATES FEW OR NO CLOUDS BELOW 12,000 FEET WITH NO
SIGNIFICANT WEATHER AND/OR OBSTRUCTIONS TO VISIBILITY.

* THESE STATIONS ARE NOT UNDER NWS QUALITY CONTROL. THEY ALSO MAY NOT
  REPORT WEATHER SUCH AS PRECIPITATION OR FOG.

ILZ005-006-012>014-019>023-241800-
NORTHEAST ILLINOIS

CITY           SKY/WX    TMP DP  RH WIND       PRES   REMARKS
OHARE          LGT RAIN  39  36  89 N14       29.47S FOG
MIDWAY         CLOUDY    40  37  89 N8        29.47S FOG
AURORA         LGT RAIN  40  38  93 NE12      29.45S FOG
LANSING*       CLOUDY    42  42 100 CALM      29.47R FOG
JOLIET*        CLOUDY    46  45  95 N6        29.44F
WAUKEGAN       LGT RAIN  36  35  96 N12G24    29.49S VSB 1
DUPAGE AIRPORT LGT RAIN  38  36  92 NE9       29.46S FOG
WHEELING       LGT RAIN  37  35  92 N13       29.49F FOG
KANKAKEE*      CLOUDY    64  57  77 SW20G25   29.45R
MORRIS*        CLOUDY    46  44  93 N6        29.43S FOG
LEWIS AIRPORT* CLOUDY    42  42 100 NE9       29.45S FOG
NORTHERLY ISL    N/A     39  38  96 N9          N/A
$$

WIZ051-052-058>065-066-070>072-241800-
SOUTHEAST WISCONSIN

CITY           SKY/WX    TMP DP  RH WIND       PRES   REMARKS
MILWAUKEE      CLOUDY    35  33  92 NE15G29   29.51F FOG     WCI  25
KENOSHA*       MIX PCPN  36  34  92 NE16G25   29.50S FOG
RACINE*        LGT RAIN  36  34  92 NE16G23   29.52F FOG
WAUKESHA       CLOUDY    30  30 100 NE16G23   29.57S FOG     WCI  19
WEST BEND      CLOUDY    32  32 100 NE12G17   29.53F FOG     WCI  23
$$

INZ001>003-010>013-019-020-241800-
NORTHWEST INDIANA

CITY           SKY/WX    TMP DP  RH WIND       PRES   REMARKS
GARY*          CLOUDY    41  39  93 N9        29.47F FOG
MICHIGAN CITY* NOT AVBL
RENSSELAER*    NOT AVBL
VALPARAISO     CLOUDY    66  58  75 SW16G25   29.45F
$$

LMZ740>746-241800-
SOUTHERN LAKE MICHIGAN

STATION/POSITION TIME  SKY/WX   TEMP WIND        PRES    VSBY
                                AIR  DIR/SP/G
                 (UTC)          (F)  (DEG/KT/KT) (MB)    (MI)
HARRISON CRIB    1640            37  330/ 17/ 18   N/A
BURNHAM HARBOR   1700            39  360/ 11/ 12   N/A
CALUMET HARBOR   1642            38  330/  9/ 14  997.6F
BURNS HARBOR     1640            38  250/  6/  7  998.6F
MICHIGAN CITY    1640            43  240/  1/  2   N/A
$$

ABBREVIATIONS USED IN REMARKS
   TC - TEMPERATURE IN CELSIUS
  WCI - WIND CHILL INDEX
   HX - HEAT INDEX
  VSB - VISIBILITY
$$




USA.gov is the U.S. government's official web portal to all federal, state and local government web resources and services.